Location: Unspecified
(47.9110°N, 14.3980°E)
Time: 09:21:37
(UTC+00:00)

COSMOS 2487 - Pass Details

Date: 06 August 2020
Orbit: 439 x 443 km, 74.7° (Epoch: 21 September)

Event Time Altitude Azimuth Distance (km) Brightness Sun altitude
Exits shadow 23:15:20 33° 7° (N) 761 4.1 -25.7°
Drops below altitude 10° 23:17:24 10° 17° (NNE) 1,564 6.1 -25.7°
Sets 23:19:30 0° 20° (NNE) 2,439 7.3 -25.7°
